,,,PA_Meas_PMT16A,,PR_Meas_QMR101_102,,RH_Meas_QMH101,,SR_Meas_QMS101,,TA_Meas_QMH101,,GenWind,,GenWind,
date,time,status,PA,status,PR,status,RH,status,SR,status,TA,status,DirAvg,status,SpdAvg,
2014-06-30, 00:00:05,VALID,1010.25,VALID,0,INVALID,110.268,VALID,0.112112,VALID,23.1272,VALID,247,VALID,0,
2014-06-30, 00:01:05,VALID,1010.28,VALID,0,INVALID,110.276,VALID,0.112112,VALID,23.1272,VALID,247,VALID,0,
2014-06-30, 00:02:05,VALID,1010.3,VALID,0,INVALID,110.307,VALID,0.112112,VALID,23.1272,VALID,247,VALID,0,
2014-06-30, 00:03:05,VALID,1010.34,VALID,0,INVALID,110.291,VALID,0.112112,VALID,23.1485,VALID,247,VALID,0,
2014-06-30, 00:04:05,VALID,1010.35,VALID,0,INVALID,110.268,VALID,0.112112,VALID,23.1272,VALID,247,VALID,0,
2014-06-30, 00:05:05,VALID,1010.37,VALID,0,INVALID,110.307,VALID,0.112112,VALID,23.1272,VALID,247,VALID,0,
2014-06-30, 00:06:05,VALID,1010.38,VALID,0,INVALID,110.322,VALID,0,VALID,23.129,VALID,247,VALID,0,
2014-06-30, 00:07:05,VALID,1010.36,VALID,0,INVALID,110.261,VALID,0.112112,VALID,23.1485,VALID,247,VALID,0,
2014-06-30, 00:08:05,VALID,1010.37,VALID,0,INVALID,110.261,VALID,0.112112,VALID,23.1679,VALID,247,VALID,0,
2014-06-30, 00:09:05,VALID,1010.37,VALID,0,INVALID,110.23,VALID,0.112112,VALID,23.2264,VALID,247,VALID,0,
2014-06-30, 00:10:05,VALID,1010.36,VALID,0,INVALID,110.162,VALID,0.112112,VALID,23.2246,VALID,247,VALID,0,
2014-06-30, 00:11:05,VALID,1010.35,VALID,0,INVALID,110.162,VALID,0,VALID,23.2069,VALID,247,VALID,0,
2014-06-30, 00:12:05,VALID,1010.37,VALID,0,INVALID,110.215,VALID,0,VALID,23.2476,VALID,247,VALID,0,
2014-06-30, 00:13:05,VALID,1010.33,VALID,0,INVALID,110.2,VALID,0,VALID,23.2069,VALID,247,VALID,0,
2014-06-30, 00:14:05,VALID,1010.35,VALID,0,INVALID,110.207,VALID,0,VALID,23.2069,VALID,247,VALID,0,
2014-06-30, 00:15:05,VALID,1010.33,VALID,0,INVALID,110.177,VALID,0,VALID,23.2282,VALID,247,VALID,0,
2014-06-30, 00:16:05,VALID,1010.35,VALID,0,INVALID,110.192,VALID,0,VALID,23.2264,VALID,247,VALID,0,
2014-06-30, 00:17:05,VALID,1010.33,VALID,0,INVALID,110.207,VALID,0,VALID,23.2459,VALID,247,VALID,0,
2014-06-30, 00:18:05,VALID,1010.35,VALID,0,INVALID,110.223,VALID,0,VALID,23.2459,VALID,247,VALID,0,
2014-06-30, 00:19:05,VALID,1010.31,VALID,0,INVALID,110.192,VALID,0,VALID,23.2459,VALID,247,VALID,0,
2014-06-30, 00:20:05,VALID,1010.34,VALID,0,INVALID,110.177,VALID,0,VALID,23.2459,VALID,247,VALID,0,
2014-06-30, 00:21:05,VALID,1010.34,VALID,0,INVALID,110.23,VALID,0,VALID,23.2264,VALID,247,VALID,0,
2014-06-30, 00:22:05,VALID,1010.32,VALID,0,INVALID,110.23,VALID,0,VALID,23.2069,VALID,247,VALID,0,
2014-06-30, 00:23:05,VALID,1010.29,VALID,0,INVALID,110.23,VALID,0,VALID,23.2264,VALID,247,VALID,0,
2014-06-30, 00:24:05,VALID,1010.28,VALID,0,INVALID,110.215,VALID,0,VALID,23.2264,VALID,247,VALID,0,
2014-06-30, 00:25:05,VALID,1010.27,VALID,0,INVALID,110.177,VALID,0,VALID,23.2459,VALID,247,VALID,0,
2014-06-30, 00:26:05,VALID,1010.28,VALID,0,INVALID,110.177,VALID,0,VALID,23.2866,VALID,247,VALID,0,
2014-06-30, 00:27:05,VALID,1010.26,VALID,0,INVALID,110.192,VALID,0,VALID,23.2459,VALID,247,VALID,0,
2014-06-30, 00:28:05,VALID,1010.25,VALID,0,INVALID,110.185,VALID,0,VALID,23.2264,VALID,247,VALID,0,
2014-06-30, 00:29:05,VALID,1010.27,VALID,0,INVALID,110.139,VALID,0,VALID,23.2459,VALID,247,VALID,0,
2014-06-30, 00:30:05,VALID,1010.27,VALID,0,INVALID,110.139,VALID,0,VALID,23.2654,VALID,247,VALID,0,
2014-06-30, 00:31:05,VALID,1010.31,VALID,0,INVALID,110.078,VALID,0,VALID,23.3256,VALID,247,VALID,0,
2014-06-30, 00:32:05,VALID,1010.27,VALID,0,INVALID,110.116,VALID,0.112112,VALID,23.3238,VALID,247,VALID,0,
2014-06-30, 00:33:05,VALID,1010.27,VALID,0,INVALID,110.116,VALID,0,VALID,23.3043,VALID,247,VALID,0,
2014-06-30, 00:34:05,VALID,1010.26,VALID,0,INVALID,110.116,VALID,0,VALID,23.3061,VALID,247,VALID,0,
2014-06-30, 00:35:05,VALID,1010.24,VALID,0,INVALID,110.108,VALID,0,VALID,23.3256,VALID,247,VALID,0,
2014-06-30, 00:36:05,VALID,1010.25,VALID,0,INVALID,110.07,VALID,0,VALID,23.3238,VALID,247,VALID,0,
2014-06-30, 00:37:05,VALID,1010.26,VALID,0,INVALID,110.055,VALID,0,VALID,23.3433,VALID,247,VALID,0,
2014-06-30, 00:38:05,VALID,1010.27,VALID,0,INVALID,110.047,VALID,0,VALID,23.3628,VALID,247,VALID,0,
2014-06-30, 00:39:05,VALID,1010.26,VALID,0,INVALID,110.063,VALID,0,VALID,23.3823,VALID,247,VALID,0,
2014-06-30, 00:40:05,VALID,1010.25,VALID,0,INVALID,110.047,VALID,0,VALID,23.4035,VALID,247,VALID,0,
2014-06-30, 00:41:05,VALID,1010.24,VALID,0,INVALID,110.055,VALID,0,VALID,23.384,VALID,247,VALID,0,
2014-06-30, 00:42:05,VALID,1010.22,VALID,0,INVALID,110.085,VALID,0,VALID,23.3628,VALID,247,VALID,0,
2014-06-30, 00:43:05,VALID,1010.22,VALID,0,INVALID,110.101,VALID,0,VALID,23.3628,VALID,247,VALID,0,
2014-06-30, 00:44:04,VALID,1010.25,VALID,0,INVALID,110.093,VALID,0,VALID,23.3628,VALID,247,VALID,0,
2014-06-30, 00:45:04,VALID,1010.25,VALID,0,INVALID,110.124,VALID,0,VALID,23.3433,VALID,247,VALID,0,
2014-06-30, 00:46:04,VALID,1010.27,VALID,0,INVALID,110.146,VALID,0,VALID,23.3433,VALID,247,VALID,0,
2014-06-30, 00:47:04,VALID,1010.26,VALID,0,INVALID,110.2,VALID,0,VALID,23.3043,VALID,247,VALID,0,
2014-06-30, 00:48:04,VALID,1010.26,VALID,0,INVALID,110.223,VALID,0,VALID,23.3043,VALID,247,VALID,0,
2014-06-30, 00:49:04,VALID,1010.24,VALID,0,INVALID,110.238,VALID,0,VALID,23.2654,VALID,247,VALID,0,
2014-06-30, 00:50:04,VALID,1010.23,VALID,0,INVALID,110.246,VALID,0,VALID,23.2848,VALID,247,VALID,0,
2014-06-30, 00:51:04,VALID,1010.25,VALID,0,INVALID,110.223,VALID,0,VALID,23.2848,VALID,247,VALID,0,
2014-06-30, 00:52:04,VALID,1010.25,VALID,0,INVALID,110.2,VALID,0,VALID,23.3061,VALID,247,VALID,0,
2014-06-30, 00:53:04,VALID,1010.27,VALID,0,INVALID,110.185,VALID,0,VALID,23.3043,VALID,247,VALID,0,
2014-06-30, 00:54:04,VALID,1010.25,VALID,0,INVALID,110.177,VALID,0,VALID,23.3256,VALID,247,VALID,0,
2014-06-30, 00:55:04,VALID,1010.24,VALID,0,INVALID,110.139,VALID,0,VALID,23.3451,VALID,247,VALID,0,
2014-06-30, 00:56:04,VALID,1010.24,VALID,0,INVALID,110.131,VALID,0,VALID,23.3433,VALID,247,VALID,0,
2014-06-30, 00:57:04,VALID,1010.26,VALID,0,INVALID,110.063,VALID,0,VALID,23.3823,VALID,247,VALID,0,
2014-06-30, 00:58:04,VALID,1010.25,VALID,0,INVALID,110.047,VALID,0,VALID,23.4017,VALID,247,VALID,0,
2014-06-30, 00:59:04,VALID,1010.25,VALID,0,INVALID,110.047,VALID,0,VALID,23.4017,VALID,247,VALID,0,
2014-06-30, 01:00:04,VALID,1010.3,VALID,0,INVALID,110.055,VALID,0,VALID,23.4212,VALID,247,VALID,0,
2014-06-30, 01:01:04,VALID,1010.28,VALID,0,INVALID,110.093,VALID,0,VALID,23.4017,VALID,247,VALID,0,
2014-06-30, 01:02:04,VALID,1010.32,VALID,0,INVALID,110.139,VALID,0,VALID,23.384,VALID,247,VALID,0,
2014-06-30, 01:03:04,VALID,1010.31,VALID,0,INVALID,110.192,VALID,0,VALID,23.3238,VALID,247,VALID,0,
2014-06-30, 01:04:04,VALID,1010.33,VALID,0,INVALID,110.246,VALID,0,VALID,23.2654,VALID,247,VALID,0,
2014-06-30, 01:05:04,VALID,1010.33,VALID,0,INVALID,110.246,VALID,0,VALID,23.2671,VALID,247,VALID,0,
2014-06-30, 01:06:04,VALID,1010.34,VALID,0,INVALID,110.246,VALID,0,VALID,23.2264,VALID,247,VALID,0,
2014-06-30, 01:07:04,VALID,1010.33,VALID,0,INVALID,110.253,VALID,0,VALID,23.2264,VALID,247,VALID,0,
2014-06-30, 01:08:04,VALID,1010.31,VALID,0,INVALID,110.284,VALID,0,VALID,23.1874,VALID,247,VALID,0,
2014-06-30, 01:09:04,VALID,1010.31,VALID,0,INVALID,110.253,VALID,0,VALID,23.1874,VALID,247,VALID,0,
2014-06-30, 01:10:04,VALID,1010.29,VALID,0,INVALID,110.23,VALID,0,VALID,23.1874,VALID,247,VALID,0,
2014-06-30, 01:11:04,VALID,1010.28,VALID,0,INVALID,110.2,VALID,0,VALID,23.1857,VALID,247,VALID,0,
2014-06-30, 01:12:04,VALID,1010.29,VALID,0,INVALID,110.223,VALID,0.112112,VALID,23.2051,VALID,247,VALID,0,
2014-06-30, 01:13:04,VALID,1010.29,VALID,0,INVALID,110.215,VALID,0.112112,VALID,23.1857,VALID,247,VALID,0,
2014-06-30, 01:14:04,VALID,1010.28,VALID,0,INVALID,110.253,VALID,0.112112,VALID,23.1662,VALID,247,VALID,0,
2014-06-30, 01:15:04,VALID,1010.24,VALID,0,INVALID,110.276,VALID,0.112112,VALID,23.1467,VALID,247,VALID,0,
2014-06-30, 01:16:04,VALID,1010.22,VALID,0,INVALID,110.284,VALID,0.112112,VALID,23.1272,VALID,247,VALID,0,
2014-06-30, 01:17:04,VALID,1010.18,VALID,0,INVALID,110.307,VALID,0.112112,VALID,23.0883,VALID,247,VALID,0,
2014-06-30, 01:18:04,VALID,1010.14,VALID,0,INVALID,110.329,VALID,0.112112,VALID,23.0493,VALID,247,VALID,0,
2014-06-30, 01:19:04,VALID,1010.15,VALID,0,INVALID,110.345,VALID,0.112112,VALID,23.0493,VALID,247,VALID,0,
2014-06-30, 01:20:04,VALID,1010.13,VALID,0,INVALID,110.322,VALID,0.112112,VALID,23.0493,VALID,247,VALID,0,
2014-06-30, 01:21:04,VALID,1010.14,VALID,0,INVALID,110.299,VALID,0.112112,VALID,23.0493,VALID,247,VALID,0,
2014-06-30, 01:22:04,VALID,1010.14,VALID,0,INVALID,110.299,VALID,0.112112,VALID,23.0511,VALID,247,VALID,0,
2014-06-30, 01:23:04,VALID,1010.17,VALID,0,INVALID,110.329,VALID,0.112112,VALID,23.0103,VALID,247,VALID,0,
2014-06-30, 01:24:04,VALID,1010.16,VALID,0,INVALID,110.322,VALID,0.112112,VALID,23.0316,VALID,247,VALID,0,
2014-06-30, 01:25:04,VALID,1010.19,VALID,0,INVALID,110.284,VALID,0.112112,VALID,23.0103,VALID,247,VALID,0,
2014-06-30, 01:26:04,VALID,1010.23,VALID,0,INVALID,110.291,VALID,0,VALID,23.0121,VALID,247,VALID,0,
2014-06-30, 01:27:04,VALID,1010.25,VALID,0,INVALID,110.291,VALID,0.112112,VALID,23.0316,VALID,247,VALID,0,
2014-06-30, 01:28:04,VALID,1010.25,VALID,0,INVALID,110.23,VALID,0,VALID,23.0316,VALID,247,VALID,0,
2014-06-30, 01:29:04,VALID,1010.26,VALID,0,INVALID,110.261,VALID,0,VALID,23.0316,VALID,247,VALID,0,
2014-06-30, 01:30:04,VALID,1010.27,VALID,0,INVALID,110.238,VALID,0,VALID,23.0316,VALID,247,VALID,0,
2014-06-30, 01:31:04,VALID,1010.27,VALID,0,INVALID,110.207,VALID,0,VALID,23.0103,VALID,247,VALID,0,
2014-06-30, 01:32:04,VALID,1010.25,VALID,0,INVALID,110.215,VALID,0,VALID,23.0121,VALID,247,VALID,0,
2014-06-30, 01:33:04,VALID,1010.22,VALID,0,INVALID,110.223,VALID,0,VALID,23.0316,VALID,247,VALID,0,
2014-06-30, 01:34:04,VALID,1010.19,VALID,0,INVALID,110.116,VALID,0,VALID,23.0705,VALID,247,VALID,0,
2014-06-30, 01:35:04,VALID,1010.16,VALID,0,INVALID,110.093,VALID,0,VALID,23.09,VALID,247,VALID,0,
2014-06-30, 01:36:04,VALID,1010.14,VALID,0,INVALID,110.085,VALID,0,VALID,23.129,VALID,247,VALID,0,
2014-06-30, 01:37:04,VALID,1010.13,VALID,0,INVALID,110.04,VALID,0,VALID,23.1485,VALID,247,VALID,0,
2014-06-30, 01:38:04,VALID,1010.13,VALID,0,INVALID,110.024,VALID,0,VALID,23.1679,VALID,247,VALID,0,
2014-06-30, 01:39:04,VALID,1010.14,VALID,0,INVALID,110.024,VALID,0,VALID,23.1679,VALID,247,VALID,0,
2014-06-30, 01:40:04,VALID,1010.12,VALID,0,INVALID,110.017,VALID,0,VALID,23.1874,VALID,247,VALID,0,
2014-06-30, 01:41:04,VALID,1010.1,VALID,0,INVALID,110.07,VALID,0,VALID,23.1485,VALID,247,VALID,0,
2014-06-30, 01:42:04,VALID,1010.08,VALID,0,INVALID,110.047,VALID,0,VALID,23.1485,VALID,247,VALID,0,
2014-06-30, 01:43:04,VALID,1010.05,VALID,0,INVALID,110.078,VALID,0,VALID,23.129,VALID,247,VALID,0,
2014-06-30, 01:44:04,VALID,1010.09,VALID,0,INVALID,110.07,VALID,0,VALID,23.1095,VALID,247,VALID,0,
2014-06-30, 01:45:04,VALID,1010.06,VALID,0,INVALID,110.085,VALID,0,VALID,23.09,VALID,247,VALID,0,
2014-06-30, 01:46:04,VALID,1010.06,VALID,0,INVALID,110.063,VALID,0,VALID,23.0883,VALID,247,VALID,0,
2014-06-30, 01:47:04,VALID,1010.06,VALID,0,INVALID,110.017,VALID,0,VALID,23.1095,VALID,247,VALID,0,
2014-06-30, 01:48:04,VALID,1010.08,VALID,0,INVALID,109.986,VALID,0,VALID,23.129,VALID,247,VALID,0,
2014-06-30, 01:49:04,VALID,1010.09,VALID,0,INVALID,109.963,VALID,0,VALID,23.1679,VALID,247,VALID,0,
2014-06-30, 01:50:04,VALID,1010.08,VALID,0,INVALID,109.971,VALID,0,VALID,23.1679,VALID,247,VALID,0,
2014-06-30, 01:51:04,VALID,1010.07,VALID,0,INVALID,109.94,VALID,0,VALID,23.1679,VALID,247,VALID,0,
2014-06-30, 01:52:04,VALID,1010.08,VALID,0,INVALID,109.963,VALID,0,VALID,23.2087,VALID,247,VALID,0,
2014-06-30, 01:53:04,VALID,1010.09,VALID,0,INVALID,109.918,VALID,0,VALID,23.1679,VALID,247,VALID,0,
2014-06-30, 01:54:04,VALID,1010.08,VALID,0,INVALID,109.918,VALID,0,VALID,23.1874,VALID,247,VALID,0,
2014-06-30, 01:55:04,VALID,1010.1,VALID,0,INVALID,109.971,VALID,0,VALID,23.1679,VALID,247,VALID,0,
2014-06-30, 01:56:04,VALID,1010.09,VALID,0,INVALID,110.001,VALID,0,VALID,23.129,VALID,247,VALID,0,
2014-06-30, 01:57:04,VALID,1010.08,VALID,0,INVALID,110.032,VALID,0,VALID,23.1112,VALID,247,VALID,0,
2014-06-30, 01:58:04,VALID,1010.05,VALID,0,INVALID,110.078,VALID,0,VALID,23.0511,VALID,247,VALID,0,
2014-06-30, 01:59:04,VALID,1010.05,VALID,0,INVALID,110.078,VALID,0,VALID,23.0316,VALID,247,VALID,0,
2014-06-30, 02:00:04,VALID,1010.03,VALID,0,INVALID,110.169,VALID,0,VALID,22.9926,VALID,247,VALID,0,
2014-06-30, 02:01:04,VALID,1009.96,VALID,0,INVALID,110.116,VALID,0,VALID,22.9731,VALID,247,VALID,0,
2014-06-30, 02:02:04,VALID,1009.99,VALID,0,INVALID,110.108,VALID,0,VALID,22.9731,VALID,247,VALID,0,
2014-06-30, 02:03:04,VALID,1009.96,VALID,0,INVALID,110.154,VALID,0,VALID,22.9554,VALID,247,VALID,0,
2014-06-30, 02:04:04,VALID,1009.93,VALID,0,INVALID,110.139,VALID,0,VALID,22.9359,VALID,247,VALID,0,
2014-06-30, 02:05:04,VALID,1009.92,VALID,0,INVALID,110.154,VALID,0,VALID,22.8952,VALID,247,VALID,0,
2014-06-30, 02:06:04,VALID,1009.91,VALID,0,INVALID,110.169,VALID,0,VALID,22.8952,VALID,247,VALID,0,
2014-06-30, 02:07:04,VALID,1009.89,VALID,0,INVALID,110.108,VALID,0,VALID,22.8952,VALID,247,VALID,0,
2014-06-30, 02:08:04,VALID,1009.88,VALID,0,INVALID,110.078,VALID,0,VALID,22.8952,VALID,247,VALID,0,
2014-06-30, 02:09:04,VALID,1009.88,VALID,0,INVALID,110.093,VALID,0,VALID,22.8952,VALID,247,VALID,0,
2014-06-30, 02:10:04,VALID,1009.88,VALID,0,INVALID,110.055,VALID,0,VALID,22.9164,VALID,247,VALID,0,
2014-06-30, 02:11:04,VALID,1009.9,VALID,0,INVALID,110.04,VALID,0,VALID,22.8952,VALID,247,VALID,0,
2014-06-30, 02:12:04,VALID,1009.92,VALID,0,INVALID,110.047,VALID,0,VALID,22.8952,VALID,247,VALID,0,
2014-06-30, 02:13:04,VALID,1009.9,VALID,0,INVALID,110.017,VALID,0,VALID,22.8952,VALID,247,VALID,0,
2014-06-30, 02:14:04,VALID,1009.93,VALID,0,INVALID,110.055,VALID,0,VALID,22.8952,VALID,247,VALID,0,
2014-06-30, 02:15:04,VALID,1009.93,VALID,0,INVALID,110.032,VALID,0,VALID,22.8952,VALID,247,VALID,0,
2014-06-30, 02:16:04,VALID,1009.92,VALID,0,INVALID,110.032,VALID,0,VALID,22.8757,VALID,247,VALID,0,
2014-06-30, 02:17:04,VALID,1009.9,VALID,0,INVALID,110.055,VALID,0,VALID,22.8757,VALID,247,VALID,0,
2014-06-30, 02:18:04,VALID,1009.93,VALID,0,INVALID,110.032,VALID,0,VALID,22.8757,VALID,247,VALID,0,
2014-06-30, 02:19:04,VALID,1009.91,VALID,0,INVALID,110.04,VALID,0,VALID,22.8562,VALID,247,VALID,0,
2014-06-30, 02:20:04,VALID,1009.88,VALID,0,INVALID,110.024,VALID,0,VALID,22.8562,VALID,247,VALID,0,
2014-06-30, 02:21:04,VALID,1009.89,VALID,0,INVALID,110.009,VALID,0,VALID,22.8562,VALID,247,VALID,0,
2014-06-30, 02:22:04,VALID,1009.89,VALID,0,INVALID,110.024,VALID,0,VALID,22.8368,VALID,247,VALID,0,
2014-06-30, 02:23:04,VALID,1009.91,VALID,0,INVALID,110.001,VALID,0,VALID,22.8368,VALID,247,VALID,0,
2014-06-30, 02:24:04,VALID,1009.88,VALID,0,INVALID,110.009,VALID,0,VALID,22.8173,VALID,247,VALID,0,
2014-06-30, 02:25:04,VALID,1009.88,VALID,0,INVALID,109.979,VALID,0,VALID,22.8368,VALID,247,VALID,0,
2014-06-30, 02:26:04,VALID,1009.87,VALID,0,INVALID,109.94,VALID,0,VALID,22.8385,VALID,247,VALID,0,
2014-06-30, 02:27:04,VALID,1009.88,VALID,0,INVALID,109.895,VALID,0.112112,VALID,22.8545,VALID,247,VALID,0,
2014-06-30, 02:28:04,VALID,1009.87,VALID,0,INVALID,109.841,VALID,0,VALID,22.8952,VALID,247,VALID,0,
2014-06-30, 02:29:04,VALID,1009.9,VALID,0,INVALID,109.818,VALID,0,VALID,22.9342,VALID,247,VALID,0,
2014-06-30, 02:30:04,VALID,1009.89,VALID,0,INVALID,109.803,VALID,0,VALID,22.9536,VALID,247,VALID,0,
2014-06-30, 02:31:04,VALID,1009.93,VALID,0,INVALID,109.757,VALID,0,VALID,22.9731,VALID,247,VALID,0,
2014-06-30, 02:32:04,VALID,1009.94,VALID,0,INVALID,109.765,VALID,0,VALID,22.9943,VALID,247,VALID,0,
2014-06-30, 02:33:04,VALID,1009.96,VALID,0,INVALID,109.666,VALID,0,VALID,23.0333,VALID,247,VALID,0,
2014-06-30, 02:34:04,VALID,1009.95,VALID,0,INVALID,109.719,VALID,0,VALID,23.0316,VALID,247,VALID,0,
2014-06-30, 02:35:04,VALID,1009.97,VALID,0,INVALID,109.735,VALID,0,VALID,23.0316,VALID,247,VALID,0,
2014-06-30, 02:36:04,VALID,1009.99,VALID,0,INVALID,109.689,VALID,0.112112,VALID,23.0121,VALID,247,VALID,0,
2014-06-30, 02:37:04,VALID,1009.95,VALID,0,INVALID,109.735,VALID,0,VALID,22.9926,VALID,247,VALID,0,
2014-06-30, 02:38:04,VALID,1009.96,VALID,0,INVALID,109.704,VALID,0,VALID,22.9731,VALID,247,VALID,0,
2014-06-30, 02:39:04,VALID,1009.97,VALID,0,INVALID,109.689,VALID,0,VALID,22.9926,VALID,247,VALID,0,
2014-06-30, 02:40:04,VALID,1010,VALID,0,INVALID,109.658,VALID,0,VALID,23.0121,VALID,247,VALID,0,
2014-06-30, 02:41:04,VALID,1009.98,VALID,0,INVALID,109.658,VALID,0,VALID,23.0121,VALID,247,VALID,0,
2014-06-30, 02:42:04,VALID,1010.01,VALID,0,INVALID,109.651,VALID,0.112112,VALID,22.9926,VALID,247,VALID,0,
2014-06-30, 02:43:04,VALID,1010,VALID,0,INVALID,109.62,VALID,0,VALID,23.0121,VALID,247,VALID,0,
2014-06-30, 02:44:04,VALID,1010.03,VALID,0,INVALID,109.62,VALID,0,VALID,23.0511,VALID,247,VALID,0,
2014-06-30, 02:45:04,VALID,1010,VALID,0,INVALID,109.681,VALID,0,VALID,22.9926,VALID,247,VALID,0,
2014-06-30, 02:46:04,VALID,1010,VALID,0,INVALID,109.704,VALID,0.112112,VALID,22.9731,VALID,247,VALID,0,
2014-06-30, 02:47:04,VALID,1010.01,VALID,0,INVALID,109.674,VALID,0.112112,VALID,22.9731,VALID,247,VALID,0,
2014-06-30, 02:48:04,VALID,1009.99,VALID,0,INVALID,109.658,VALID,0,VALID,22.9731,VALID,247,VALID,0,
2014-06-30, 02:49:04,VALID,1009.97,VALID,0,INVALID,109.727,VALID,0,VALID,22.9536,VALID,247,VALID,0,
2014-06-30, 02:50:04,VALID,1009.98,VALID,0,INVALID,109.712,VALID,0,VALID,22.9342,VALID,247,VALID,0,
2014-06-30, 02:51:04,VALID,1009.98,VALID,0,INVALID,109.674,VALID,0,VALID,22.9147,VALID,247,VALID,0,
2014-06-30, 02:52:04,VALID,1009.99,VALID,0,INVALID,109.75,VALID,0,VALID,22.9164,VALID,247,VALID,0,
2014-06-30, 02:53:04,VALID,1009.98,VALID,0,INVALID,109.757,VALID,0,VALID,22.8562,VALID,247,VALID,0,
2014-06-30, 02:54:04,VALID,1009.97,VALID,0,INVALID,109.727,VALID,0,VALID,22.8969,VALID,247,VALID,0,
2014-06-30, 02:55:04,VALID,1009.95,VALID,0,INVALID,109.681,VALID,0,VALID,22.8969,VALID,247,VALID,0,
2014-06-30, 02:56:04,VALID,1009.94,VALID,0,INVALID,109.689,VALID,0,VALID,22.8775,VALID,247,VALID,0,
2014-06-30, 02:57:04,VALID,1009.92,VALID,0,INVALID,109.605,VALID,0,VALID,22.9164,VALID,247,VALID,0,
2014-06-30, 02:58:04,VALID,1009.89,VALID,0,INVALID,109.689,VALID,0,VALID,22.8562,VALID,247,VALID,0,
2014-06-30, 02:59:04,VALID,1009.86,VALID,0,INVALID,109.696,VALID,0,VALID,22.8368,VALID,247,VALID,0,
2014-06-30, 03:00:04,VALID,1009.86,VALID,0,INVALID,109.757,VALID,0,VALID,22.8173,VALID,247,VALID,0,
2014-06-30, 03:01:04,VALID,1009.89,VALID,0,INVALID,109.719,VALID,0,VALID,22.7978,VALID,247,VALID,0,
2014-06-30, 03:02:04,VALID,1009.9,VALID,0,INVALID,109.765,VALID,0.112112,VALID,22.7978,VALID,247,VALID,0,
2014-06-30, 03:03:04,VALID,1009.89,VALID,0,INVALID,109.773,VALID,0.112112,VALID,22.7995,VALID,247,VALID,0,
2014-06-30, 03:04:04,VALID,1009.91,VALID,0,INVALID,109.75,VALID,0,VALID,22.7606,VALID,247,VALID,0,
2014-06-30, 03:05:04,VALID,1009.9,VALID,0,INVALID,109.757,VALID,0,VALID,22.7394,VALID,247,VALID,0,
2014-06-30, 03:06:04,VALID,1009.91,VALID,0,INVALID,109.757,VALID,0,VALID,22.7394,VALID,247,VALID,0,
2014-06-30, 03:07:04,VALID,1009.91,VALID,0,INVALID,109.78,VALID,0.112112,VALID,22.7394,VALID,247,VALID,0,
2014-06-30, 03:08:04,VALID,1009.91,VALID,0,INVALID,109.757,VALID,0,VALID,22.7606,VALID,247,VALID,0,
2014-06-30, 03:09:04,VALID,1009.93,VALID,0,INVALID,109.735,VALID,0,VALID,22.7394,VALID,247,VALID,0,
2014-06-30, 03:10:04,VALID,1009.97,VALID,0,INVALID,109.735,VALID,0,VALID,22.7394,VALID,247,VALID,0,
2014-06-30, 03:11:04,VALID,1009.95,VALID,0,INVALID,109.735,VALID,0,VALID,22.7394,VALID,247,VALID,0,
2014-06-30, 03:12:04,VALID,1009.97,VALID,0,INVALID,109.704,VALID,0,VALID,22.7394,VALID,247,VALID,0,
2014-06-30, 03:13:04,VALID,1009.96,VALID,0,INVALID,109.719,VALID,0,VALID,22.7394,VALID,247,VALID,0,
2014-06-30, 03:14:04,VALID,1009.96,VALID,0,INVALID,109.658,VALID,0,VALID,22.7588,VALID,247,VALID,0,
2014-06-30, 03:15:04,VALID,1009.95,VALID,0,INVALID,109.681,VALID,0,VALID,22.78,VALID,247,VALID,0,
2014-06-30, 03:16:04,VALID,1009.97,VALID,0,INVALID,109.651,VALID,0,VALID,22.7995,VALID,247,VALID,0,
2014-06-30, 03:17:04,VALID,1009.97,VALID,0,INVALID,109.681,VALID,0,VALID,22.78,VALID,247,VALID,0,
2014-06-30, 03:18:04,VALID,1009.96,VALID,0,INVALID,109.658,VALID,0.112112,VALID,22.7783,VALID,247,VALID,0,
2014-06-30, 03:19:04,VALID,1009.97,VALID,0,INVALID,109.628,VALID,0,VALID,22.78,VALID,247,VALID,0,
2014-06-30, 03:20:04,VALID,1009.99,VALID,0,INVALID,109.605,VALID,0,VALID,22.7588,VALID,247,VALID,0,
2014-06-30, 03:21:04,VALID,1009.97,VALID,0,INVALID,109.635,VALID,0,VALID,22.7783,VALID,247,VALID,0,
2014-06-30, 03:22:04,VALID,1009.95,VALID,0,INVALID,109.552,VALID,0,VALID,22.7978,VALID,247,VALID,0,
2014-06-30, 03:23:04,VALID,1009.93,VALID,0,INVALID,109.582,VALID,0,VALID,22.7978,VALID,247,VALID,0,
2014-06-30, 03:24:04,VALID,1009.9,VALID,0,INVALID,109.597,VALID,0,VALID,22.7995,VALID,247,VALID,0,
2014-06-30, 03:25:04,VALID,1009.88,VALID,0,INVALID,109.597,VALID,0,VALID,22.7995,VALID,247,VALID,0,
2014-06-30, 03:26:04,VALID,1009.84,VALID,0,INVALID,109.62,VALID,0.112112,VALID,22.7978,VALID,247,VALID,0,
2014-06-30, 03:27:04,VALID,1009.85,VALID,0,INVALID,109.613,VALID,0.112112,VALID,22.7571,VALID,247,VALID,0,
2014-06-30, 03:28:04,VALID,1009.83,VALID,0,INVALID,109.62,VALID,0.112112,VALID,22.7588,VALID,247,VALID,0,
2014-06-30, 03:29:04,VALID,1009.83,VALID,0,INVALID,109.651,VALID,0.112112,VALID,22.7199,VALID,247,VALID,0,
2014-06-30, 03:30:04,VALID,1009.87,VALID,0,INVALID,109.658,VALID,0.112112,VALID,22.6987,VALID,247,VALID,0,
2014-06-30, 03:31:04,VALID,1009.88,VALID,0,INVALID,109.651,VALID,0.112112,VALID,22.6987,VALID,247,VALID,0,
2014-06-30, 03:32:04,VALID,1009.9,VALID,0,INVALID,109.651,VALID,0.112112,VALID,22.6792,VALID,247,VALID,0,
2014-06-30, 03:33:04,VALID,1009.85,VALID,0,INVALID,109.613,VALID,0.112112,VALID,22.6792,VALID,247,VALID,0,
2014-06-30, 03:34:04,VALID,1009.86,VALID,0,INVALID,109.613,VALID,0.112112,VALID,22.6792,VALID,247,VALID,0,
2014-06-30, 03:35:04,VALID,1009.83,VALID,0,INVALID,109.613,VALID,0.112112,VALID,22.7004,VALID,247,VALID,0,
2014-06-30, 03:36:04,VALID,1009.83,VALID,0,INVALID,109.62,VALID,0.112112,VALID,22.6792,VALID,247,VALID,0,
2014-06-30, 03:37:04,VALID,1009.81,VALID,0,INVALID,109.613,VALID,0.112112,VALID,22.7004,VALID,247,VALID,0,
2014-06-30, 03:38:04,VALID,1009.81,VALID,0,INVALID,109.613,VALID,0.112112,VALID,22.6597,VALID,247,VALID,0,
2014-06-30, 03:39:04,VALID,1009.83,VALID,0,INVALID,109.635,VALID,0.112112,VALID,22.6402,VALID,247,VALID,0,
2014-06-30, 03:40:04,VALID,1009.84,VALID,0,INVALID,109.635,VALID,0.112112,VALID,22.6402,VALID,247,VALID,0,
2014-06-30, 03:41:04,VALID,1009.84,VALID,0,INVALID,109.613,VALID,0,VALID,22.642,VALID,247,VALID,0,
2014-06-30, 03:42:04,VALID,1009.83,VALID,0,INVALID,109.574,VALID,0.112112,VALID,22.642,VALID,247,VALID,0,
2014-06-30, 03:43:04,VALID,1009.86,VALID,0,INVALID,109.544,VALID,0.112112,VALID,22.6809,VALID,247,VALID,0,
2014-06-30, 03:44:04,VALID,1009.89,VALID,0,INVALID,109.559,VALID,0,VALID,22.6614,VALID,247,VALID,0,
2014-06-30, 03:45:04,VALID,1009.9,VALID,0,INVALID,109.559,VALID,0.112112,VALID,22.6614,VALID,247,VALID,0,
2014-06-30, 03:46:04,VALID,1009.91,VALID,0,INVALID,109.544,VALID,0,VALID,22.6614,VALID,247,VALID,0,
2014-06-30, 03:47:04,VALID,1009.94,VALID,0,INVALID,109.574,VALID,0,VALID,22.642,VALID,247,VALID,0,
2014-06-30, 03:48:04,VALID,1009.93,VALID,0,INVALID,109.59,VALID,0,VALID,22.642,VALID,247,VALID,0,
2014-06-30, 03:49:04,VALID,1009.92,VALID,0,INVALID,109.59,VALID,0,VALID,22.603,VALID,247,VALID,0,
2014-06-30, 03:50:04,VALID,1009.99,VALID,0,INVALID,109.635,VALID,0,VALID,22.603,VALID,247,VALID,0,
2014-06-30, 03:51:04,VALID,1009.96,VALID,0,INVALID,109.628,VALID,0,VALID,22.5835,VALID,247,VALID,0,